Coral Harbour, Nunavut

11:58 AM EST on January 21, 2017 (GMT -0500)
Coral Harbour

Weather History for CYZS - October, 2013

Change the Weather History Date:

Saturday, October 12, 2013

  Actual Average Record
Temperature  
Mean Temperature 32 °F -  
Max Temperature 34 °F 19 °F 37 °F (2005)
Min Temperature 30 °F 4 °F 6 °F (1996)
Degree Days  
Heating Degree Days 33    
Moisture  
Dew Point 33 °F    
Average Humidity 99    
Maximum Humidity 100    
Minimum Humidity 93    
Precipitation  
Precipitation 0.16 in 0.04 in - ()
Sea Level Pressure  
Sea Level Pressure 29.78 in    
Wind  
Wind Speed 8 mph ()    
Max Wind Speed 17 mph    
Max Gust Speed -    
Visibility 0.5 miles    
Events Fog , Rain    
Averages and records for this station are not official NWS values.
T = Trace of Precipitation, MM = Missing Value Source: Averaged Metar Reports

Daily Weather History Graph

Daily Weather History Graph

Search for Another Location

Airport or City:

Trip Planner

Search our weather history database for the weather conditions in past years. The results will help you decide how hot, cold, wet, or windy it might be!

Date:

Astronomy

Oct. 12, 2013 Rise Set
Actual Time 8:15 AM EDT 6:22 PM EDT
Civil Twilight 7:27 AM EDT 7:10 PM EDT
Nautical Twilight 6:31 AM EDT 8:06 PM EDT
Astronomical Twilight 5:34 AM EDT 9:02 PM EDT
Moon 4:30 PM EDT (10/12) No Moon Set
Length of Visible Light 11h 43m
Length of Day
10h 06m
First Quarter, 58% of the Moon is Illuminated
Oct 12
First Quarter
Oct 18
Full
Oct 26
Last Quarter
Nov 3
New
Nov 10
First Quarter

Hourly Weather History & Observations

Time (EDT) Temp. Windchill Dew Point Humidity Pressure Visibility Wind Dir Wind Speed Gust Speed Precip Events Conditions
12:00 AM 32.0 °F 20.8 °F 32.0 °F 100% 30.00 in 0.2 mi SSE 17.3 mph - N/A Fog Light Drizzle
1:00 AM 33.8 °F 23.9 °F 32.0 °F 93% 29.98 in 0.2 mi SSE 15.0 mph - N/A Fog Light Drizzle
2:00 AM 33 °F - 32 °F 96% 29.95 in 0 mi SE 11.5 mph - - Rain Light Drizzle
2:00 AM 33.8 °F 25.3 °F 32.0 °F 93% 29.95 in 0.2 mi SE 11.5 mph - N/A Fog Light Drizzle
3:00 AM 33.8 °F 26.4 °F 32.0 °F 93% 29.93 in 0.2 mi SE 9.2 mph - N/A Fog Light Drizzle
4:00 AM 33.8 °F 25.8 °F 33.8 °F 100% 29.91 in 0.2 mi SE 10.4 mph - N/A Fog Light Drizzle
4:14 AM - - - N/A% - 1.0 mi SE 10.4 mph - N/A   Light Drizzle
5:00 AM 33.8 °F 27.0 °F 33.8 °F 100% 29.88 in 1.0 mi SE 8.1 mph - N/A   Light Drizzle
6:00 AM 33.8 °F 25.8 °F 32.0 °F 93% 29.84 in 1.0 mi ESE 10.4 mph - N/A   Light Drizzle
7:00 AM 33.8 °F 26.4 °F 33.8 °F 100% 29.82 in 0.8 mi SE 9.2 mph - N/A   Light Drizzle
8:00 AM 34 °F - 33 °F 95% 29.79 in 1 mi SE 9.2 mph - - Rain Light Drizzle
8:00 AM 33.8 °F 26.4 °F 33.8 °F 100% 29.79 in 0.8 mi SE 9.2 mph - N/A   Light Drizzle
8:20 AM - - - N/A% - 0.8 mi SE 8.1 mph - N/A Rain Light Rain Showers
9:00 AM 33.8 °F 27.7 °F 33.8 °F 100% 29.77 in 0.8 mi SE 6.9 mph - N/A Rain Light Rain Showers
9:45 AM - - - N/A% - 0.5 mi ESE 6.9 mph - N/A Fog Light Drizzle
10:00 AM 33.8 °F 27.7 °F 33.8 °F 100% 29.75 in 0.5 mi SE 6.9 mph - N/A Fog Light Drizzle
10:17 AM - - - N/A% - 0.2 mi ESE 4.6 mph - N/A Fog Light Drizzle
11:00 AM 33.8 °F 29.6 °F 33.8 °F 100% 29.73 in 0.1 mi SE 4.6 mph - N/A Fog Light Drizzle
12:00 PM 33.8 °F 28.6 °F 33.8 °F 100% 29.75 in 0.1 mi South 5.8 mph - N/A Fog Light Drizzle
1:00 PM 33.8 °F - 33.8 °F 100% 29.74 in 0.1 mi Calm Calm - N/A Fog Light Drizzle
1:24 PM - - - N/A% - 0.1 mi Calm Calm - N/A Fog Fog
1:37 PM - - - N/A% - 0.1 mi Calm Calm - N/A Fog , Rain Light Rain Showers
2:00 PM 34 °F - 34 °F 98% 29.72 in 0 mi East 3.5 mph - - Rain Light Rain Showers
2:00 PM 33.8 °F 30.8 °F 33.8 °F 100% 29.72 in 0.1 mi East 3.5 mph - N/A Fog Fog
2:14 PM - - - N/A% - 0.1 mi Calm Calm - N/A Fog , Rain Light Rain
2:20 PM - - - N/A% - 0.2 mi East 4.6 mph - N/A Fog , Rain Rain
2:35 PM - - - N/A% - 1.0 mi NE 5.8 mph - N/A Rain Light Rain
3:00 PM 33.8 °F 27.7 °F 33.8 °F 100% 29.72 in 5.0 mi East 6.9 mph - N/A Rain Light Rain
3:24 PM - - - N/A% - 3.0 mi East 6.9 mph - N/A Rain Light Rain
3:50 PM - - - N/A% - 0.5 mi East 11.5 mph - N/A Fog , Rain Light Rain
4:00 PM 33.8 °F 27.0 °F 33.8 °F 100% 29.71 in 0.5 mi East 8.1 mph - N/A Fog Light Drizzle
4:22 PM - - - N/A% - 0.4 mi East 8.1 mph - N/A Fog Fog
5:00 PM 33.8 °F 28.6 °F 33.8 °F 100% 29.73 in 0.1 mi East 5.8 mph - N/A Fog Fog
6:00 PM 33.8 °F 26.4 °F 33.8 °F 100% 29.71 in 0.1 mi East 9.2 mph - N/A Fog Fog
7:00 PM 33.8 °F 24.8 °F 33.8 °F 100% 29.68 in 0.0 mi East 12.7 mph - N/A Fog Fog
8:00 PM 34 °F - 34 °F 98% 29.69 in 0 mi East 10.4 mph - - Fog Heavy Fog
8:00 PM 33.8 °F 25.8 °F 33.8 °F 100% 29.69 in 0.0 mi East 10.4 mph - N/A Fog Fog
9:00 PM 33.8 °F 25.8 °F 33.8 °F 100% 29.67 in 0.1 mi East 10.4 mph - N/A Fog Fog
10:00 PM 33.8 °F 24.3 °F 33.8 °F 100% 29.63 in 0.1 mi East 13.8 mph - N/A Fog Fog
11:00 PM 33.8 °F 25.8 °F 33.8 °F 100% 29.65 in 0.1 mi ESE 10.4 mph - N/A Fog Fog